スキッフ彗星

352P/Skiff (2017)

English version
Home page
Updated on August 28, 2018

---------------------------------------------------------------------

・ プロフィール

符号 352P/2017 L1
検出日 2017年6月5日
検出光度 17.8等
検出者 H. Sato (Tokyo, Japan)

・ 写真集

・ 軌道要素

Epoch 2017 June 16.0 TT = JDT 2457920.5
T 2017 June 21.60830 TT                                 MPCW
q   2.5359588            (2000.0)            P               Q
n   0.05779087     Peri.  309.08415     +0.89777619     +0.40663765
a   6.6256716      Node    28.15752     -0.20241520     +0.72218123
e   0.6172526      Incl.   21.01714     -0.39118538     +0.55955348
P  17.05
From 562 observations 2000 Aug. 26-2018 Jan. 14, mean residual 0".6.

・ 星図

・ 光度変化

        m1 = 7.5 + 5 logΔ + 18.0 log r(t - 150)  [   ,100]  (              〜2017年 9月29日)
        m1 = 0.0 + 5 logΔ + 35   log r           [100,   ]  (2017年 9月29日〜              )

---------------------------------------------------------------------

軌道要素はM.P.E.C. 2018-B155に掲載されたものです。
星図はステラナビゲータ Ver.10 (アストロアーツ) で作成したものです。
光度グラフはComet for Windowsで作成したものです。

---------------------------------------------------------------------

Copyright(C) Seiichi Yoshida (comet@aerith.net). All rights reserved.